Henrik Krøyer Holme

KL  EN  DA
ASIAQ
Weather Now GREENLAND SURVEY
Updated [WGT/WGST] Temperature [°C] Wind [m/s] Air pressure [hPa] Relative humidity [%] Precipitation [mm]
Present Wind chill Speed Max
02.09 00:00-5,8-11,95,0 ⇙6,0101490n/a
01.09 23:00-5,3-10,94,0 ⇙5,0101491n/a
01.09 22:00-5,4-11,45,0 ⇙6,0101491n/a
01.09 21:00-5,2-10,84,0 ⇙6,0101494n/a
01.09 20:00-4,4-10,55,0 ⇙6,0101490n/a
01.09 19:00-3,9-8,74,0 ⇙6,0101491n/a
01.09 18:00-3,3-8,04,0 ⇙5,0101487n/a
01.09 17:00-3,1-8,24,0 ⇙5,0101485n/a
01.09 16:00-3,2-8,34,0 ⇙5,0101488n/a
01.09 15:00-2,9-7,94,0 ⇙5,0101491n/a
01.09 14:00-2,7-6,83,0 ⇙4,0101494n/a
01.09 13:00-2,5-6,63,0 ⇙4,0101493n/a
01.09 12:00-2,3-6,33,0 ⇙4,0101494n/a
01.09 11:00-2,0-4,92,0 ⇙3,0101490n/a
01.09 10:00-2,1-5,02,0 ⇓3,0101489n/a
01.09 09:00-2,2-5,12,0 ⇓3,0101391n/a
01.09 08:00-2,3-5,83,0 ⇙4,0101390n/a
01.09 07:00-2,4-6,53,0 ⇙4,0101390n/a
01.09 06:00-2,3-5,22,0 ⇐3,0101391n/a
01.09 05:00-2,3-4,42,0 ⇖2,0101393n/a
01.09 04:00-2,4-5,32,0 ⇑3,0101394n/a
01.09 03:00-2,5-7,04,0 ⇐4,0101395n/a
01.09 02:00-2,1-6,13,0 ⇖4,0101394n/a
01.09 01:00-1,6-5,53,0 ⇐4,0101391n/a
01.09 00:00-0,3-3,43,0 ⇙4,0101481n/a
Position: (80.649444,-13.711944)

[Back]